Погода в Люлебургазе

Турция     41˚24′07″N   27˚21′18″E
темп.,
°C
ветер,
м/с
пор.,
м/с
влажн.,
%
обл.,
%
осадки,
мм/ч
давл.,
гПа
погр.,
м
17 января, вс
вс1700:00−1˚с71167100 0.1 1012758
03:00−1˚с61070100 0.1 1012891
06:00−2˚с61070100 0.1 1013762
09:00−2˚с5952100 0.1 1014932
12:00−1˚с684456 0.0 10171155
15:00с454166 0.0 10161503
18:00−1˚с2351100 0.0 1017238
21:00−3˚ссв246093 0.0 1018142
18 января, пн
пн1800:00−3˚ссв236436 0.0 1020112
03:00−3˚ссз245941 0.0 1020301
06:00−4˚ссз25604 0.0 1021466
09:00−4˚сз23602 0.0 1022249
12:00−1˚ссз34370 0.0 1023853
15:00+1˚сз22310 0.0 10221209
18:00−1˚зсз12420 0.0 102221
21:00−2˚зюз11450 0.0 102321
19 января, вт
вт1900:00−3˚сз11480 0.0 102421
03:00−3˚сз00490 0.0 102421
06:00−3˚вюв11500 0.0 102421
09:00−4˚ю005020 0.0 102521
12:00з2240100 0.0 1025450
15:00+2˚зсз343872 0.0 10241031
18:00−1˚зюз12500 0.0 102421
21:00−2˚ююз22550 0.0 102622
20 января, ср
ср2000:00−3˚ю11612 0.0 102621
03:00−3˚юв11644 0.0 102621
06:00−3˚вюв127056 0.0 102521
09:00−2˚юв238162 0.0 102650
12:00+4˚ююз356965 0.0 1027473
15:00+8˚юз476065 0.0 10251034
18:00+4˚юз33800 0.0 102522
21:00+1˚ююв239021 0.0 102626
21 января, чт
чт2100:00+1˚ю239348 0.0 102625
03:00+1˚ююв239127 0.0 102623
06:00+1˚юв239077 0.0 102424
09:00+2˚юв238988 0.0 102546
12:00+6˚ю4880100 0.0 1025462
15:00+9˚юз4980100 0.1 1024758
18:00+7˚ююз338698 0.1 102345
21:00+5˚ююв349076 0.1 102461